Regional Weather Roundup
Issued by NWS

Home | Current Version | Previous Version | Graphics & Text | Print | Product List | Glossary On
Versions: 1 2 3 4 5 6 7 8 9 10 11 12 13 14 15 16 17 18 19 20 21 22 23 24 25 26 27 28 29 30 31 32 33 34 35 36 37 38 39 40 41 42 43 44 45 46 47 48 49 50
000
ASUS43 KIND 020759
RWRIN

WEATHER ROUNDUP FOR INDIANA
NATIONAL WEATHER SERVICE INDIANAPOLIS IN
400 AM EDT TUE JUN 02 2015

NOTE: "FAIR" INDICATES FEW OR NO CLOUDS BELOW 12,000 FEET WITH NO
SIGNIFICANT WEATHER AND/OR OBSTRUCTIONS TO VISIBILITY.

* - STATION DOES NOT REPORT WEATHER SUCH AS PRECIPITATION OR FOG.

+ - STATION NOT QUALITY CONTROLLED BY THE NATIONAL WEATHER SERVICE.
    USE DATA WITH CAUTION...ESPECIALLY DEWPOINT AND RELATIVE
    HUMIDITY OBSERVATIONS.

INZ001>003-010>013-019-020-020900-
NORTHWEST INDIANA

CITY           SKY/WX    TMP DP  RH WIND       PRES   REMARKS
RENSSELAER +   CLEAR     45  45 100 NE3       30.17R

$$

LMZ046-743>745-020900-
SOUTHERN LAKE MICHIGAN

STATION/POSITION TIME  TEMP    WIND        PRES    WAVE
                       AIR SEA DIR/SP/G            HT
                 (UTC) (F)     (DEG/KT/KT) (MB)    (FT)
BURNS HARBOR     0700           CALM  /  1 1022.4S
MICHIGAN CITY    0700   48     120/  2/  4   N/A
5NW MICH CITY    0700   50 56   CALM  /  2   N/A     2

$$

INZ004-005-014>016-021>024-020900-
NORTH CENTRAL INDIANA

CITY           SKY/WX    TMP DP  RH WIND       PRES   REMARKS
GOSHEN         CLEAR     48  44  86 CALM      30.17F
PERU/GRISSOM   CLEAR     49  46  90 E7        30.14F
SOUTH BEND     CLEAR     51  46  83 E3        30.19R

$$

INZ006>009-017-018-025>027-020900-
NORTHEAST INDIANA

CITY           SKY/WX    TMP DP  RH WIND       PRES   REMARKS
ANGOLA *+      CLEAR     45  28  53 CALM      30.17F
FORT WAYNE     PTCLDY    47  45  93 CALM      30.17F

$$

INZ028-029-035-036-043>045-051>053-020900-
WEST CENTRAL INDIANA

CITY           SKY/WX    TMP DP  RH WIND       PRES   REMARKS
CRAWFORDSVL +  CLEAR     49  43  79 E7        30.14F
GREENCASTLE +  CLEAR     50  43  76 E5        30.14S
LAFAYETTE      CLEAR     49  47  93 NE3       30.15S
TERRE HAUTE    CLEAR     53  49  86 NE6       30.13S

$$

INZ030>032-037>040-046>048-054>057-064-065-020900-
CENTRAL INDIANA

CITY           SKY/WX    TMP DP  RH WIND       PRES   REMARKS
GREENWOOD *+   CLEAR     50  46  87 E3        30.14F
INDIANAPOLIS   PTCLDY    52  46  80 E7        30.12F
-EAGLE CREEK   CLEAR     50  47  89 NE3       30.13F
KOKOMO *+      CLEAR     48  45  87 NE6       30.16S
MT COMFORT *+  CLEAR     46 N/A N/A NE5       30.14S
SHELBYVILLE    CLEAR     51  47  86 NE5       30.13F

$$

INZ033-034-041-042-049-050-058-059-020900-
EAST CENTRAL INDIANA

CITY           SKY/WX    TMP DP  RH WIND       PRES   REMARKS
MUNCIE         CLEAR     48  46  93 NE6       30.15F

$$

INZ060-061-067>069-081>083-085>088-020900-
SOUTHWEST INDIANA

CITY           SKY/WX    TMP DP  RH WIND       PRES   REMARKS
EVANSVILLE     CLOUDY    58  55  90 E6        30.10F
HUNTINGBURG *+ CLOUDY    57  54  88 N3        30.10F

$$

INZ062-063-066-070>080-084-089>092-020900-
SOUTH CENTRAL AND SOUTHEAST INDIANA

CITY           SKY/WX    TMP DP  RH WIND       PRES   REMARKS
BLOOMINGTON    CLOUDY    55  50  83 E7        30.12S
MADISON *+     CLOUDY    54  50  87 NE7       30.13F
SEYMOUR +      CLOUDY    57  50  77 E9        30.12F

$$




USA.gov is the U.S. government's official web portal to all federal, state and local government web resources and services.